Location: Arroyo de San Miguel
(40.9167°N, 4.6667°W)
Time: 17:09:54
(UTC+00:00)

Daily predictions for brighter satellites

Satellite Brightness Start Highest point End
(mag) Time Altitude Azimuth Time Altitude Azimuth Time Altitude Azimuth
MOS 1 Rocket 4.5 19:57:42 10° S 20:02:54 53° W 20:08:09 10° NNW
Okean-O 4.1 20:04:18 10° ESE 20:07:34 21° ENE 20:10:50 10° NNE
ERS-1 Rocket 4.2 20:05:33 10° ESE 20:09:36 25° ENE 20:13:40 10° NNE
Cosmos 858 Rocket 4.5 20:05:10 10° NNW 20:10:22 78° ENE 20:15:32 10° SSE
Feng Yun 1-1 Rocket 4.4 20:05:55 10° SSE 20:11:27 66° ENE 20:17:10 10° N
Cosmos 2369 Rocket 4.4 20:08:04 10° NW 20:12:27 23° W 20:16:48 10° SSW
Intercosmos 24 Rocket 4.4 20:13:34 10° NNW 20:17:10 71° W 20:20:50 10° S
ISS -0.9 20:15:40 10° NNW 20:17:23 13° N 20:19:06 10° NNE
Lacrosse 4 Rocket 3.8 20:14:48 10° WSW 20:18:11 27° NW 20:21:35 10° N
Gbstr 26 Del rocket 3.8 20:13:02 10° WNW 20:18:46 62° SW 20:23:22 10° SE
Cosmos 1743 4.2 20:16:57 10° NNE 20:19:18 17° ENE 20:21:21 11° ESE
CZ-4B R/B 3.1 20:15:57 10° SSE 20:19:54 52° ENE 20:23:47 10° N
ARIANE 6 FM1 Upper Stage 2.7 20:16:18 10° SSW 20:20:11 50° ESE 20:24:05 10° NE
NOSS 3-1 (C) 3.9 20:16:55 10° SSE 20:20:27 22° ESE 20:24:23 10° ENE
Cosmos 1782 2.5 20:19:41 10° S 20:23:20 76° E 20:27:01 10° N
Cosmos 1726 Rocket 3.6 20:21:18 10° S 20:25:40 65° E 20:30:02 10° NNE
Cosmos 1833 Rocket 3.4 20:21:44 10° SSE 20:26:42 33° ESE 20:31:40 10° NE
MetOp-B 4.5 20:22:05 10° SE 20:27:13 50° ENE 20:32:23 10° N
CZ-4 R/B 2.4 20:23:32 10° S 20:27:19 44° W 20:31:07 10° NNW
DELTA 2 R/B (1) 4.1 20:26:36 10° SW 20:31:39 37° SSE 20:36:43 10° E
Cosmos 1937 Rocket 4.4 20:28:18 10° NNW 20:33:14 46° WSW 20:38:06 10° S
Cosmos 158 Rocket 4.4 20:30:45 10° S 20:35:40 43° ESE 20:40:43 10° NNE
USA 186 2.7 20:33:43 10° S 20:36:18 38° W 20:38:54 10° NNW
Cosmos 1076 Rocket 3.9 20:32:36 10° N 20:36:47 45° ENE 20:40:10 15° SSE
Okean 1-7 Rocket 4.5 20:34:58 10° NNW 20:39:11 49° W 20:43:22 10° SSW
Cosmos 2058 Rocket 3.4 20:36:54 10° SSE 20:41:10 46° E 20:45:27 10° NNE
Cosmos 1825 Rocket 3.7 20:39:22 10° N 20:43:40 75° W 20:47:55 10° S
DEBRIS 3.6 20:38:01 10° WNW 20:45:32 52° SW 20:47:32 19° SSE
NOSS 3-1 (A) 4.4 20:50:27 15° ESE 20:50:27 15° ESE 20:53:09 10° ENE
Helios 1A 2.8 20:46:35 10° NNE 20:50:38 75° E 20:54:37 10° S
Resurs 01 Rocket 4.2 20:48:43 10° SW 20:51:48 19° W 20:54:54 10° NW
Helios 1B rocket 2.7 20:48:22 10° S 20:51:57 55° W 20:55:34 10° NNW
ATLAS CENTAUR R/B 1.0 20:48:28 10° SSW 20:52:04 88° WNW 20:55:52 10° NNE
Cosmos 2151 3.9 20:48:19 10° NNW 20:52:20 46° W 20:56:19 10° SSW
Terra 2.0 20:50:03 18° SE 20:53:24 54° ENE 20:57:59 10° N
Cosmos 1980 Rocket 4.2 20:50:28 10° NNE 20:53:45 16° NE 20:57:02 10° E
SAR-Lupe-2 4.3 20:57:49 25° ESE 20:59:19 37° ENE 21:02:38 10° N
USA 234 3.2 20:53:53 10° NE 21:00:27 86° SE 21:07:00 10° SW
BlueWalker 3 3.9 21:04:42 10° NNW 21:07:34 21° NNE 21:10:12 11° ENE
Cosmos 1400 Rocket 3.2 21:04:59 10° SSW 21:08:37 57° WNW 21:12:14 10° N
CZ-4B R/B 4.2 21:03:31 10° S 21:08:45 43° W 21:13:56 10° NNW
Cosmos 1125 Rocket 4.0 21:06:18 10° N 21:11:23 45° ENE 21:14:02 25° ESE
Cosmos 1346 Rocket 2.9 21:09:45 10° N 21:13:23 50° ENE 21:14:32 35° SE
IRS-1C Rocket 4.3 21:15:27 26° SE 21:18:14 55° ENE 21:23:22 10° N
Ariane Rocket 3.6 21:16:59 26° ESE 21:19:12 40° ENE 21:23:55 10° N
Cosmos 1953 Rocket 4.3 21:16:23 10° NNW 21:20:42 50° W 21:24:11 15° SSW
Cosmos 1238 Rocket 4.2 21:22:12 21° ENE 21:22:12 21° ENE 21:24:25 10° NE
Cosmos 44 4.0 21:18:52 10° NNW 21:23:12 40° NE 21:25:13 27° ESE
Cosmos 1570 Rocket 4.0 21:19:35 15° S 21:23:48 65° ESE 21:29:02 10° NNE
Lacrosse 5 rocket 2.0 21:22:18 10° NNW 21:25:35 35° NE 21:26:34 29° ENE
CZ-4C R/B 3.4 21:18:40 10° NW 21:26:05 63° WSW 21:32:15 21° SSE
Cosmos 1697 Rocket 3.0 21:21:06 10° NNW 21:26:40 54° ENE 21:29:17 30° SE
SL-8 Rocket 4.2 21:20:47 10° N 21:26:47 52° ENE 21:29:41 29° SE
Cosmos 2327 Rocket 4.4 21:21:30 10° N 21:27:39 80° E 21:31:17 26° SSE
SPOT 5 4.5 21:24:56 10° SSW 21:28:34 26° W 21:32:12 10° NW
ATLAS 3B R/B 4.4 21:30:06 15° E 21:30:06 15° E 21:33:31 10° ENE
Cosmos-2242 3.1 21:27:28 19° SSW 21:30:28 74° W 21:34:45 10° N
Cosmos 2221 3.2 21:37:29 33° E 21:37:30 33° E 21:41:15 10° NNE
Okean O Rocket 3.2 21:34:39 12° SSW 21:38:03 29° W 21:41:51 10° NW
SeaSat 1 3.8 21:36:40 21° E 21:38:37 27° NE 21:42:43 10° N
Cosmos 1867 4.0 21:33:52 10° NNW 21:39:13 53° NE 21:41:23 33° ESE
Okean 1 4.1 21:42:37 32° ENE 21:42:37 32° ENE 21:45:24 10° NNE
Cosmos 2082 Rocket 2.9 21:42:05 32° ESE 21:42:26 32° ESE 21:47:21 10° NE
Okean-O 3.9 21:40:55 18° SSW 21:43:37 36° W 21:47:41 10° NNW
SPOT 3 Rocket 3.5 21:43:33 39° SSE 21:45:30 77° ENE 21:50:39 10° N
ERS-1 Rocket 4.1 21:44:41 17° SSW 21:48:06 37° W 21:52:45 10° NNW
Cosmos 2341 Rocket 3.9 21:42:13 10° N 21:48:29 79° E 21:51:18 35° SSE
Cosmos 773 Rocket 3.9 21:51:32 42° S 21:53:09 65° ESE 21:58:14 10° NNE
ISS -1.6 21:52:25 10° NNW 21:55:06 22° NNE 21:56:12 18° NE
Cosmos 2084 Rocket 3.9 21:52:39 10° SW 21:56:53 60° NW 22:01:05 10° NNE
Cosmos 220 Rocket 4.1 21:57:20 51° E 21:57:20 51° E 22:00:56 10° NNE
COSMOS 2406 4.3 21:59:10 27° E 21:59:10 27° E 22:03:19 10° NE
Spot 2 Rocket 4.1 21:57:45 29° SSW 22:00:01 49° W 22:04:54 10° NNW
Cosmos 1356 Rocket 3.7 22:04:09 44° SW 22:05:15 62° W 22:09:20 10° N
Cosmos 1733 4.2 22:05:50 10° NNW 22:08:27 31° W 22:08:27 31° W
Cosmos 1833 Rocket 4.2 22:05:22 10° SW 22:10:30 36° WNW 22:15:41 10° N
NOSS 3-1 (C) 4.1 22:06:11 10° WSW 22:10:39 42° NW 22:15:57 10° NNE
DELTA 2 R/B (1) 3.4 22:12:08 10° WSW 22:17:40 73° S 22:19:10 49° ESE
Cosmos 1821 Rocket 3.8 22:17:30 10° N 22:23:38 79° E 22:25:07 53° SSE
Cosmos 1805 4.1 22:22:03 10° N 22:24:24 39° NNE 22:24:24 39° NNE
Cosmos 1812 Rocket 4.4 22:25:55 36° WSW 22:26:58 44° WNW 22:31:07 10° N
Cosmos 2218 Rocket 4.3 22:22:13 10° NNW 22:28:29 62° W 22:30:48 38° SSW
Cosmos 1315 Rocket 3.6 22:30:06 43° W 22:30:23 43° WNW 22:34:07 10° N
Meteor 1-27 Rocket 4.3 22:30:54 40° E 22:30:54 40° E 22:36:01 10° NNE
Terra 4.2 22:28:41 10° SW 22:31:15 15° W 22:33:57 10° NW
Cosmos 1980 Rocket 2.0 22:32:52 10° NNW 22:38:29 87° WSW 22:39:12 69° SSE
NOSS 3-1 (A) 3.4 22:37:43 28° WSW 22:40:08 58° NW 22:45:38 10° NNE
Intercosmos 25 Rocket 4.1 22:41:10 68° SE 22:41:45 75° E 22:49:21 10° N
DELTA 2 DEB (DPAF) 4.5 22:41:02 10° N 22:44:39 51° WNW 22:44:39 51° WNW
BlueWalker 3 3.3 22:41:59 10° NW 22:44:08 33° WNW 22:44:08 33° WNW
Cosmos 783 Rocket 4.4 22:47:02 69° SW 22:47:36 79° WNW 22:52:49 10° NNE
SL-16 R/B 3.6 22:44:52 10° N 22:49:41 28° NE 22:51:04 25° E
Meteor 1-11 Rocket 3.5 22:47:33 10° N 22:53:06 77° E 22:53:25 74° ESE
Cosmos 2322 Rocket 4.0 22:54:18 10° N 22:58:26 20° NE 23:00:25 17° ENE
ARIANE 5 R/B 3.4 23:01:14 44° NE 23:01:14 44° NE 23:04:43 10° N
Cosmos 1842 Rocket 4.2 23:02:48 51° NNE 23:02:48 51° NNE 23:06:04 10° N
Lacrosse 5 rocket 3.7 23:00:10 10° WNW 23:00:34 12° W 23:00:34 12° W
Nadezhda 3 Rocket 4.1 23:06:38 53° SW 23:07:57 66° W 23:14:11 10° N
Cosmos 1697 Rocket 4.4 23:06:03 10° NW 23:10:09 21° W 23:11:00 20° WSW
SeaSat 1 3.3 23:16:18 40° W 23:16:18 40° W 23:20:27 10° NW
Cosmos 2278 4.4 23:10:41 10° NNW 23:16:04 43° ENE 23:16:39 42° ENE
Cosmos 381 Rocket 4.3 23:17:17 72° SSW 23:18:00 90° WNW 23:24:25 10° NNE
Cosmos 2360 Rocket 3.8 23:13:41 10° N 23:18:10 24° NE 23:19:47 21° ENE
ATLAS 3B R/B 2.8 23:17:16 57° SSW 23:18:58 82° ESE 23:26:47 10° NE
Cosmos 1934 Rocket 3.8 23:13:10 10° N 23:19:28 84° E 23:20:02 75° SSE
USA 229 DEB 3.7 23:20:46 54° E 23:20:46 54° E 23:26:25 10° NE
USA 229 3.7 23:20:53 53° E 23:20:53 53° E 23:26:30 10° NE
Cosmos 1339 Rocket 4.4 23:20:29 67° SW 23:21:11 75° W 23:27:16 10° N
CZ-2C R/B 4.2 23:18:11 10° N 23:21:45 55° NNW 23:21:45 55° NNW
Cosmos 2369 3.9 23:17:57 10° NNW 23:23:23 59° WSW 23:23:23 59° WSW
CENTAUR R/B 4.4 23:16:10 10° NNW 23:23:35 36° NE 23:31:24 12° ESE
Cosmos 2082 Rocket 3.4 23:23:50 24° WSW 23:26:23 36° WNW 23:31:32 10° N
ISS -0.7 23:28:49 10° WNW 23:29:07 12° WNW 23:29:07 12° WNW
Cosmos 1605 Rocket 4.0 23:28:38 10° N 23:34:55 65° E 23:35:18 63° E
Landsat 5 4.5 23:33:04 10° N 23:36:07 45° NNW 23:36:07 45° NNW
Okean 3 Rocket 4.5 23:33:09 10° NNW 23:36:25 46° NW 23:36:25 46° NW
COSMOS 2406 4.1 23:41:08 36° W 23:42:37 43° WNW 23:48:02 10° N
Cosmos 1151 Rocket 4.2 23:56:08 39° N 23:56:08 39° N 23:58:51 10° N
USA 59 Rocket 2.3 23:56:15 14° NNW 23:56:15 14° NNW 23:57:19 10° N
